Simultaneous Nadir Overpasses (SNOs) Predictions

Prediction of SNOs between GOES-17 and FY3D Satellite Orbit:

Table of predicted SNOs for the next 14.0 days since TLE Epoch: 8/3/2024
Index Date Time (GOES-17) GOES-17 Lat,Lon FY3D Lat,Lon Distance(km) Time Diff (sec)
1 08/03/2024 21:22:04 0.04,-104.69 0.76,-101.41 373.08 80
2 08/05/2024 09:44:07 -0.04,-104.69 0.39,-106.72 230.48 80
3 08/06/2024 09:22:51 -0.05,-104.70 -0.59,-102.20 283.98 80
4 08/07/2024 21:45:03 0.05,-104.72 -0.59,-107.54 321.54 80
5 08/08/2024 21:29:08 0.05,-104.72 0.46,-103.03 193.32 80
6 08/10/2024 09:51:10 -0.05,-104.73 0.74,-108.33 409.26 80
7 08/11/2024 09:29:55 -0.05,-104.74 -0.25,-103.81 105.31 80
8 08/13/2024 21:36:11 0.06,-104.76 0.08,-104.64 13.72 80
9 08/16/2024 09:39:38 -0.07,-104.77 0.09,-105.42 74.92 80
